When you browse on this site, cookies collect data to enhance your experience and personalize the content and advertising you see.
Visit our Privacy Policy to learn more. By continuing to use the site, you agree to this use of cookies and data.
  • In Norway
  • List of Countries
  • For 7 days
  • Water Temperature
  • Satellite Maps
  • Weather Map
  • Weather Widgets
  • user-avatar
    Login

    Hourly Weather Eisenstadt

    Today, 22 March, Friday

    Time Temperature Precipitation Wind Pressure Humidity
    00:00 +5°C° 0 mm 1 mps 734 mmHg 59%
    01:00 +5°C° 0 mm 1 mps 734 mmHg 59%
    02:00 +5°C° 0 mm 1 mps 734 mmHg 59%
    03:00 +5°C° 0 mm 1 mps 733 mmHg 58%
    04:00 +4°C° 0 mm 1 mps 733 mmHg 57%
    05:00 +5°C° 0 mm 1 mps 733 mmHg 57%
    06:00 +5°C° 0 mm 1 mps 734 mmHg 56%
    07:00 +5°C° 0 mm 1 mps 734 mmHg 56%
    08:00 +7°C° 0 mm 0 mps 734 mmHg 51%
    09:00 +9°C° 0 mm 0 mps 734 mmHg 45%
    10:00 +12°C° 0 mm 0 mps 734 mmHg 40%
    11:00 +12°C° 0 mm 0 mps 733 mmHg 40%
    12:00 +14°C° 0 mm 1 mps 733 mmHg 40%
    13:00 +15°C° 0 mm 1 mps 733 mmHg 40%
    14:00 +15°C° 0 mm 1 mps 732 mmHg 42%
    15:00 +15°C° 0 mm 1 mps 732 mmHg 45%
    16:00 +15°C° 0 mm 2 mps 732 mmHg 47%
    17:00 +13°C° 0 mm 1 mps 732 mmHg 54%
    18:00 +12°C° 0 mm 1 mps 732 mmHg 62%
    19:00 +9°C° 0 mm 0 mps 732 mmHg 69%
    20:00 +9°C° 0 mm 0 mps 732 mmHg 71%
    21:00 +9°C° 0 mm 1 mps 732 mmHg 73%
    22:00 +9°C° 0 mm 1 mps 732 mmHg 75%
    23:00 +8°C° 0 mm 1 mps 732 mmHg 76%

    Tomorrow, 23 March, Saturday

    Time Temperature Precipitation Wind Pressure Humidity
    00:00 +8°C° 0 mm 1 mps 732 mmHg 77%
    01:00 +8°C° 0 mm 1 mps 732 mmHg 78%
    02:00 +7°C° 0 mm 1 mps 731 mmHg 79%
    03:00 +7°C° 0 mm 1 mps 731 mmHg 80%
    04:00 +6°C° 0 mm 0 mps 731 mmHg 80%
    05:00 +7°C° 0 mm 1 mps 731 mmHg 79%
    06:00 +7°C° 0 mm 1 mps 731 mmHg 78%
    07:00 +8°C° 0 mm 1 mps 731 mmHg 77%
    08:00 +10°C° 0 mm 1 mps 731 mmHg 69%
    09:00 +12°C° 0 mm 1 mps 731 mmHg 61%
    10:00 +14°C° 0 mm 2 mps 731 mmHg 54%
    11:00 +15°C° 0 mm 2 mps 731 mmHg 50%
    12:00 +16°C° 0 mm 2 mps 730 mmHg 47%
    13:00 +19°C° 0 mm 1 mps 730 mmHg 44%
    14:00 +18°C° 0 mm 1 mps 730 mmHg 45%
    15:00 +18°C° 0 mm 1 mps 729 mmHg 45%
    16:00 +17°C° 0 mm 2 mps 729 mmHg 46%
    17:00 +15°C° 0 mm 1 mps 729 mmHg 53%
    18:00 +14°C° 0 mm 1 mps 729 mmHg 59%
    19:00 +12°C° 0 mm 1 mps 729 mmHg 66%
    20:00 +11°C° 0 mm 1 mps 729 mmHg 68%
    21:00 +11°C° 0 mm 1 mps 729 mmHg 69%
    22:00 +11°C° 0 mm 1 mps 729 mmHg 71%
    23:00 +10°C° 0 mm 1 mps 729 mmHg 71%

    Day after tomorrow, 24 March, Sunday

    Time Temperature Precipitation Wind Pressure Humidity
    00:00 +10°C° 0 mm 1 mps 729 mmHg 72%
    01:00 +10°C° 0 mm 1 mps 729 mmHg 73%
    02:00 +9°C° 0 mm 1 mps 728 mmHg 73%
    03:00 +9°C° 0 mm 1 mps 728 mmHg 74%
    04:00 +9°C° 0 mm 1 mps 728 mmHg 74%
    05:00 +9°C° 0 mm 1 mps 728 mmHg 73%
    06:00 +9°C° 0 mm 1 mps 728 mmHg 72%
    07:00 +10°C° 0 mm 1 mps 728 mmHg 71%
    08:00 +12°C° 0 mm 1 mps 728 mmHg 65%
    09:00 +14°C° 0 mm 1 mps 728 mmHg 58%
    10:00 +16°C° 0 mm 1 mps 728 mmHg 52%
    11:00 +18°C° 0 mm 1 mps 728 mmHg 51%
    12:00 +17°C° 0 mm 2 mps 728 mmHg 49%
    13:00 +18°C° 0 mm 2 mps 727 mmHg 48%
    14:00 +17°C° 0 mm 2 mps 727 mmHg 53%
    15:00 +16°C° 0 mm 2 mps 727 mmHg 58%
    16:00 +16°C° 0 mm 3 mps 726 mmHg 64%
    17:00 +13°C° 0.1 mm 3 mps 726 mmHg 68%
    18:00 +12°C° 0.1 mm 3 mps 726 mmHg 73%
    19:00 +11°C° 0.1 mm 4 mps 727 mmHg 77%
    20:00 +11°C° 0 mm 4 mps 727 mmHg 78%
    21:00 +10°C° 0 mm 4 mps 727 mmHg 79%
    22:00 +10°C° 0 mm 4 mps 728 mmHg 80%
    23:00 +8°C° 0 mm 4 mps 728 mmHg 80%

    25 March, Monday

    Time Temperature Precipitation Wind Pressure Humidity
    00:00 +7°C° 0 mm 4 mps 728 mmHg 79%
    01:00 +8°C° 0 mm 3 mps 728 mmHg 78%
    02:00 +7°C° 0 mm 3 mps 728 mmHg 76%
    03:00 +7°C° 0 mm 3 mps 728 mmHg 73%
    04:00 +5°C° 0 mm 3 mps 728 mmHg 70%
    05:00 +5°C° 0 mm 3 mps 728 mmHg 68%
    06:00 +5°C° 0 mm 4 mps 728 mmHg 65%
    07:00 +5°C° 0 mm 4 mps 728 mmHg 63%
    08:00 +6°C° 0 mm 4 mps 729 mmHg 60%
    09:00 +7°C° 0 mm 4 mps 729 mmHg 58%
    10:00 +8°C° 0 mm 4 mps 729 mmHg 55%
    11:00 +8°C° 0 mm 4 mps 729 mmHg 55%
    12:00 +9°C° 0 mm 3 mps 728 mmHg 55%
    13:00 +10°C° 0 mm 3 mps 728 mmHg 55%
    14:00 +10°C° 0 mm 3 mps 728 mmHg 54%
    15:00 +10°C° 0 mm 3 mps 727 mmHg 54%
    16:00 +10°C° 0 mm 3 mps 727 mmHg 53%
    17:00 +9°C° 0.1 mm 3 mps 727 mmHg 57%
    18:00 +8°C° 0.1 mm 3 mps 727 mmHg 62%
    19:00 +7°C° 0.1 mm 2 mps 727 mmHg 66%
    20:00 +6°C° 0 mm 2 mps 727 mmHg 65%
    21:00 +6°C° 0 mm 2 mps 728 mmHg 65%
    22:00 +5°C° 0 mm 2 mps 728 mmHg 65%
    23:00 +5°C° 0 mm 2 mps 728 mmHg 67%

    26 March, Tuesday

    Time Temperature Precipitation Wind Pressure Humidity
    00:00 +4°C° 0 mm 2 mps 728 mmHg 69%
    01:00 +3°C° 0 mm 3 mps 728 mmHg 71%
    02:00 +3°C° 0.2 mm 4 mps 728 mmHg 71%
    03:00 +2°C° 0.2 mm 5 mps 728 mmHg 71%
    04:00 +2°C° 0.2 mm 6 mps 728 mmHg 72%
    05:00 +1°C° 0 mm 6 mps 729 mmHg 70%
    06:00 0°C° 0 mm 7 mps 729 mmHg 68%
    07:00 -1°C° 0 mm 7 mps 729 mmHg 66%
    08:00 +2°C° 0 mm 7 mps 730 mmHg 59%
    09:00 +2°C° 0 mm 8 mps 730 mmHg 52%
    10:00 +4°C° 0 mm 8 mps 731 mmHg 45%
    11:00 +5°C° 0 mm 8 mps 731 mmHg 44%
    12:00 +5°C° 0 mm 8 mps 731 mmHg 42%
    13:00 +6°C° 0 mm 8 mps 731 mmHg 41%
    14:00 +6°C° 0 mm 8 mps 731 mmHg 42%
    15:00 +6°C° 0 mm 8 mps 731 mmHg 43%
    16:00 +6°C° 0 mm 7 mps 731 mmHg 44%
    17:00 +5°C° 0 mm 6 mps 731 mmHg 49%
    18:00 +5°C° 0 mm 5 mps 731 mmHg 55%
    19:00 +3°C° 0 mm 3 mps 732 mmHg 61%
    20:00 +3°C° 0 mm 3 mps 732 mmHg 63%
    21:00 +2°C° 0 mm 3 mps 732 mmHg 64%
    22:00 +3°C° 0 mm 2 mps 733 mmHg 66%
    23:00 +2°C° 0 mm 2 mps 733 mmHg 68%

    27 March, Wednesday

    Time Temperature Precipitation Wind Pressure Humidity
    00:00 +2°C° 0 mm 2 mps 733 mmHg 70%
    01:00 +2°C° 0 mm 2 mps 733 mmHg 71%
    02:00 +1°C° 0 mm 2 mps 733 mmHg 72%
    03:00 +1°C° 0 mm 2 mps 732 mmHg 72%
    04:00 +1°C° 0 mm 2 mps 732 mmHg 72%
    05:00 +1°C° 0 mm 2 mps 732 mmHg 70%
    06:00 +2°C° 0 mm 2 mps 732 mmHg 67%
    07:00 +2°C° 0 mm 2 mps 732 mmHg 65%
    08:00 +4°C° 0 mm 2 mps 733 mmHg 58%
    09:00 +5°C° 0 mm 3 mps 733 mmHg 51%
    10:00 +7°C° 0 mm 4 mps 733 mmHg 44%
    11:00 +8°C° 0 mm 4 mps 732 mmHg 44%
    12:00 +8°C° 0 mm 4 mps 732 mmHg 44%
    13:00 +9°C° 0 mm 5 mps 732 mmHg 45%
    14:00 +8°C° 0 mm 5 mps 732 mmHg 47%
    15:00 +8°C° 0 mm 5 mps 732 mmHg 49%
    16:00 +8°C° 0 mm 5 mps 731 mmHg 51%
    17:00 +7°C° 0 mm 4 mps 732 mmHg 58%
    18:00 +5°C° 0 mm 3 mps 732 mmHg 64%
    19:00 +4°C° 0 mm 3 mps 732 mmHg 71%
    20:00 +4°C° 0 mm 3 mps 733 mmHg 73%
    21:00 +3°C° 0 mm 3 mps 733 mmHg 76%
    22:00 +3°C° 0 mm 3 mps 734 mmHg 78%
    23:00 +3°C° 0 mm 3 mps 734 mmHg 80%
    Show more